Theta_e
322 322 324 323 323 325 333 334 335 335 332 330 330 330 329 329 330 330 330 330 330 329 323 333 335 331 330 331 329 327 333 335 336 336 334 336 335 332 332 333 334 334 334
322 321 323 324 324 325 333 333 334 333 332 331 330 330 329 329 330 330 330 328 329 328 327 329 330 334 330 330 327 325 330 335 335 338 337 336 336 330 330 333 334 333 334
326 321 322 324 324 326 334 334 333 333 332 331 331 330 329 329 330 330 329 329 328 329 329 328 329 332 331 331 329 327 328 333 334 335 336 336 336 330 330 332 333 333 334
327 323 323 325 325 327 335 333 333 333 332 331 331 330 329 330 330 329 328 329 327 329 329 327 328 328 328 330 333 333 331 331 333 332 333 336 337 334 330 331 332 334 334
329 327 325 326 325 332 335 334 333 332 332 332 331 330 330 330 330 329 328 328 327 328 329 328 328 328 328 328 334 335 333 329 332 332 333 334 336 335 331 331 332 334 333
332 329 327 325 327 336 334 334 333 333 332 331 331 329 329 329 329 328 328 327 327 327 329 329 329 328 327 327 329 334 335 333 329 333 332 335 337 337 332 332 333 334 331
333 332 330 329 333 335 334 334 333 332 331 330 328 327 327 328 328 327 327 327 327 327 327 328 328 327 327 328 324 322 335 336 330 331 333 335 337 336 334 332 334 331 323
334 333 333 333 336 334 334 333 332 331 329 328 326 324 327 326 326 326 326 326 327 327 327 327 328 328 327 329 327 322 324 333 337 334 334 335 334 334 334 333 332 324 319
337 337 336 337 335 334 333 333 332 330 328 326 327 324 325 327 324 326 326 326 326 327 327 327 327 327 327 327 328 327 323 328 332 335 333 334 334 334 331 329 325 321 321
339 339 338 336 334 334 332 332 330 328 327 325 325 325 323 322 325 326 325 324 326 326 327 327 326 327 327 326 329 329 324 326 331 334 335 334 333 333 328 324 323 321 321
338 336 335 334 334 332 329 328 328 328 327 326 325 324 324 324 324 325 326 324 325 326 327 327 327 327 327 327 329 328 322 328 330 332 336 335 333 331 327 323 322 325 323
335 334 334 334 331 330 328 327 327 328 328 327 326 324 324 323 324 324 324 321 323 325 327 327 327 328 328 328 328 329 329 326 329 330 335 333 332 329 323 321 320 318 318
334 334 333 331 330 329 327 327 328 328 328 327 327 326 325 324 324 324 323 321 325 324 325 327 328 328 328 327 327 329 330 330 328 330 334 332 331 325 321 320 320 322 323
333 332 331 331 330 329 328 328 328 328 328 328 327 327 326 325 325 324 323 323 325 325 324 325 326 326 327 328 327 329 330 331 330 332 333 330 326 323 323 323 322 323 320
332 331 331 330 328 327 328 329 329 329 328 327 327 327 327 327 326 325 323 324 325 327 326 325 326 327 327 327 328 328 329 332 332 333 332 326 325 321 324 321 321 316 311
331 330 328 328 329 330 330 330 329 329 328 328 328 326 326 326 326 326 325 323 324 324 327 326 325 328 328 328 327 327 330 332 332 332 328 326 323 323 321 321 316 312 316
328 327 328 329 329 329 329 328 328 329 328 327 327 326 327 326 327 326 325 322 324 324 324 324 326 328 328 326 328 328 330 331 331 329 326 322 323 322 319 320 314 312 312
327 328 329 330 330 329 329 329 329 328 325 325 326 327 327 327 327 327 326 324 324 324 325 325 326 327 326 325 324 325 327 328 326 324 322 321 317 315 320 319 317 318 321
328 328 327 327 328 329 329 330 330 329 327 326 325 326 326 326 326 326 327 326 324 324 325 324 324 323 323 324 323 323 323 321 321 320 318 317 319 320 319 321 321 322 321
328 326 327 329 329 330 329 329 330 329 328 325 326 326 325 325 327 326 325 325 325 324 323 323 322 321 321 321 322 319 319 319 319 318 319 319 320 319 319 317 316 316 315
326 327 329 329 329 326 329 330 329 330 327 324 325 326 326 326 327 326 325 324 324 323 323 322 320 320 320 320 319 318 318 317 318 319 319 319 319 316 314 314 316 317 315
328 330 329 328 326 326 330 329 328 326 326 326 327 327 327 327 325 325 324 324 324 323 322 321 320 320 320 319 318 318 317 317 316 317 318 316 315 315 314 314 318 317 315
327 329 328 328 324 328 330 329 326 327 327 327 327 327 327 326 325 324 324 323 323 323 322 321 320 320 319 318 318 318 318 317 316 316 317 314 314 315 315 317 318 315 312
327 329 328 326 324 329 330 329 328 327 327 327 327 326 326 325 324 323 323 323 323 322 321 320 320 319 319 318 318 318 317 316 315 315 314 313 314 316 317 317 315 312 308
328 328 327 325 325 329 330 329 328 326 326 326 325 325 325 324 323 323 322 322 322 322 321 321 320 319 319 319 318 318 316 316 315 315 315 315 313 314 313 313 312 309 304
327 327 326 325 325 330 330 329 327 326 325 324 324 324 324 323 322 323 323 322 321 321 321 320 319 319 319 319 319 319 318 316 316 316 315 315 313 312 308 309 307 305 302
Wind_Speed
36 33 29 26 24 20 20 18 17 15 13 12 13 13 12 14 13 12 10 8 8 10 15 14 14 16 16 14 14 13 16 16 19 20 19 15 14 13 13 14 16 15 16
38 34 33 30 25 22 20 18 17 17 14 14 15 15 15 15 14 13 12 11 10 9 12 14 17 16 16 15 13 12 15 18 19 21 21 18 14 13 13 12 13 14 15
37 35 34 32 26 22 20 19 17 17 15 14 16 16 16 16 16 14 14 14 12 13 13 14 15 15 14 13 12 13 14 17 19 19 17 17 15 14 14 11 10 12 16
35 34 34 30 22 20 20 18 18 17 15 15 17 18 17 17 17 17 16 15 13 13 14 16 14 13 13 12 11 12 13 15 19 20 15 18 15 16 15 13 12 13 18
31 34 34 26 22 19 21 20 18 16 16 17 18 18 19 20 20 17 15 15 13 12 13 18 15 14 13 11 12 13 12 13 14 19 16 18 18 15 16 14 11 18 22
31 33 33 32 25 23 21 18 17 17 19 18 18 18 17 18 19 17 15 14 15 14 13 19 17 14 13 11 11 12 12 12 14 16 18 20 16 15 17 13 16 22 27
29 31 28 24 22 23 21 17 17 16 15 14 10 10 11 13 15 13 14 14 14 12 13 16 17 15 13 13 10 13 11 12 13 14 16 16 13 14 15 14 21 32 27
27 24 26 27 23 21 17 17 17 12 8 9 4 2 2 1 11 11 9 11 13 12 13 14 14 13 11 10 13 11 14 11 11 12 15 15 13 10 11 19 34 33 28
22 25 25 23 20 16 17 17 15 13 8 7 11 3 1 2 0 2 6 6 9 10 13 13 13 13 13 10 10 13 14 13 11 12 12 14 15 14 27 37 37 30 27
22 23 22 20 17 14 14 14 12 11 11 9 10 12 2 2 1 1 1 8 9 11 10 12 11 11 11 11 9 11 12 13 12 13 14 16 18 27 28 24 29 27 28
18 18 19 16 13 13 11 10 11 11 12 10 9 5 11 4 1 1 2 1 3 8 8 10 10 11 9 11 10 9 13 13 11 13 17 17 21 33 34 33 28 26 31
16 16 15 13 12 11 10 10 10 10 11 11 11 11 7 5 4 3 2 1 2 2 4 7 9 9 11 10 8 9 10 14 14 14 21 26 33 32 34 33 25 26 24
19 18 16 14 13 11 10 9 10 11 11 12 13 14 14 11 6 8 6 2 2 2 2 6 8 9 10 9 8 10 10 14 16 17 28 35 33 33 30 30 28 24 23
19 16 14 12 10 10 10 9 10 10 11 11 11 12 13 15 13 10 6 6 2 2 4 3 3 3 7 9 9 9 15 16 19 24 31 37 33 36 34 32 30 28 24
15 12 10 9 8 8 9 9 11 12 11 12 11 12 13 13 14 14 10 12 8 3 2 2 2 3 4 6 8 9 12 18 23 29 36 38 40 38 37 34 30 27 23
11 10 10 8 7 6 6 6 9 10 13 15 10 10 10 10 10 14 14 12 9 6 3 4 2 7 6 5 5 8 14 22 26 36 43 44 39 39 35 33 30 26 22
12 12 9 7 4 3 3 5 6 6 8 6 9 8 8 8 9 11 14 15 9 8 6 5 8 11 12 14 15 19 27 31 37 41 41 41 38 35 29 26 26 25 21
12 10 8 4 2 3 5 5 6 9 12 13 9 7 5 8 8 10 13 16 16 11 12 10 13 12 20 23 29 32 34 36 41 40 39 40 33 29 27 24 22 19 19
11 8 5 3 3 4 5 7 10 11 13 14 12 9 8 8 9 11 11 14 18 16 19 16 11 18 21 29 32 33 35 35 38 39 32 31 30 27 25 23 20 18 16
9 5 4 6 2 1 5 8 6 10 13 11 7 8 9 10 10 11 13 17 23 21 20 21 20 21 23 27 33 31 28 37 36 32 32 30 29 27 23 20 15 13 12
6 7 11 6 2 2 6 6 5 7 11 8 6 6 9 9 7 10 19 25 28 25 23 21 20 20 22 23 29 28 29 32 31 33 33 29 27 22 16 13 11 10 9
8 9 8 6 3 4 6 6 8 11 10 7 5 7 9 9 11 13 18 26 27 30 27 21 23 21 20 23 31 33 36 28 10 27 29 21 19 18 13 11 9 8 7
9 9 8 4 3 4 6 7 8 8 9 9 11 13 12 12 13 17 22 23 25 23 26 30 27 26 26 32 33 29 29 21 16 23 26 17 15 14 12 10 9 8 7
9 10 8 4 2 5 5 7 8 10 11 10 10 12 16 17 18 23 25 24 23 21 25 24 27 28 32 33 35 31 31 25 25 23 15 7 12 11 10 10 10 9 9
10 10 7 5 3 5 7 9 11 11 11 10 10 12 14 16 23 27 31 31 29 26 24 27 30 34 37 38 37 35 27 27 14 10 11 13 10 9 8 8 10 11 12
9 9 9 5 4 6 8 8 11 12 13 13 13 11 12 20 27 30 32 33 29 30 30 32 31 34 35 34 32 29 31 23 17 8 13 9 14 8 4 9 12 14 16
Wind_Direction
212 214 219 219 225 229 233 235 240 241 239 249 257 259 262 260 268 273 270 266 270 259 224 222 225 225 228 238 245 240 233 224 220 216 221 221 220 219 207 205 205 201 196
215 216 220 223 227 230 234 236 241 244 244 252 257 262 262 257 259 267 272 282 267 243 229 237 231 218 224 231 236 236 234 227 226 221 227 221 215 206 204 204 203 198 195
218 219 223 226 226 237 234 241 241 241 244 253 260 256 255 257 252 260 273 274 265 232 242 232 215 217 221 225 233 234 230 227 228 229 229 227 213 203 200 203 195 200 189
222 224 226 227 230 242 240 240 238 235 246 259 263 253 249 249 251 261 267 265 261 258 251 223 217 219 224 231 230 229 231 229 223 229 223 219 214 203 199 199 200 188 178
222 222 225 224 236 237 235 237 228 235 250 257 258 258 257 254 255 261 257 254 251 255 245 218 218 222 228 238 229 224 229 232 227 225 217 219 224 203 204 202 199 182 169
219 220 220 218 205 219 230 226 233 241 245 255 270 275 271 259 251 252 250 248 245 245 237 217 215 225 228 240 229 223 226 226 226 223 217 219 225 212 207 202 174 167 149
217 215 214 216 201 209 219 229 235 236 246 262 272 291 272 252 246 246 244 233 233 232 241 231 213 220 230 236 234 225 222 220 221 220 220 217 219 217 202 206 173 151 135
210 199 203 204 198 205 218 226 226 236 250 246 208 227 306 281 236 233 226 222 226 233 234 232 221 214 233 230 228 229 223 218 216 216 212 206 194 199 229 213 151 136 135
199 199 198 195 201 211 224 228 234 239 239 233 210 186 139 237 281 192 196 228 231 230 235 218 212 222 229 232 231 222 221 214 211 207 203 198 186 178 151 149 144 139 139
194 196 195 194 204 216 222 232 239 239 226 213 207 219 170 152 163 81 8 280 266 237 240 214 219 219 223 224 224 213 212 203 208 201 190 184 162 150 145 139 137 137 130
183 185 192 199 207 215 229 239 230 222 220 213 199 180 212 222 153 101 103 345 228 211 214 205 208 207 215 207 203 203 198 191 196 198 186 174 166 153 141 142 137 137 141
181 187 193 200 209 225 227 226 223 227 227 226 223 216 188 170 211 164 127 141 155 213 181 174 179 192 191 192 205 196 189 193 188 187 176 158 157 158 141 141 146 146 140
178 183 193 200 215 219 220 225 227 229 230 230 229 231 227 221 201 201 146 125 125 126 105 113 161 179 182 186 187 192 196 191 189 180 169 164 165 156 151 146 140 151 149
177 184 196 208 216 216 224 230 232 234 236 235 234 235 234 226 215 209 177 143 120 113 65 116 119 164 196 197 203 203 202 190 184 173 171 162 152 143 143 148 148 147 149
173 187 200 204 200 213 227 238 243 242 235 235 236 235 232 225 218 218 216 196 153 147 138 171 140 132 184 203 208 197 186 179 173 172 166 153 150 147 150 147 146 144 145
173 181 177 182 197 220 239 254 262 250 242 237 225 225 220 214 212 213 213 197 194 142 135 166 141 150 167 178 187 175 170 168 160 163 157 152 149 147 147 146 152 147 148
164 161 164 172 186 241 257 258 257 238 237 241 238 222 226 208 205 210 208 205 183 154 134 122 139 152 148 137 145 148 154 152 157 156 152 148 149 148 147 148 148 151 151
158 159 158 169 227 266 272 259 250 220 218 203 235 222 204 186 187 202 208 208 196 173 140 138 135 125 134 133 127 133 138 146 148 151 148 144 145 155 154 148 154 158 163
163 166 177 225 210 270 289 284 257 231 210 199 219 218 189 184 186 190 193 180 172 162 144 142 117 118 121 137 121 127 133 132 138 141 142 147 151 152 152 153 154 157 159
170 192 197 149 152 326 318 315 316 210 193 186 183 193 197 201 199 187 170 162 157 138 136 124 119 121 123 129 132 121 117 125 132 142 145 146 145 144 145 145 144 149 149
165 168 149 143 111 12 357 34 78 155 168 175 185 190 193 202 202 181 166 157 150 136 130 125 121 127 129 136 134 128 117 121 130 144 142 142 145 148 146 144 150 147 153
166 155 143 136 85 32 35 81 112 134 144 165 176 166 153 144 151 166 165 166 158 145 142 138 137 138 132 131 133 135 129 131 121 149 143 137 152 164 159 162 154 158 167
172 154 154 134 80 51 75 104 126 130 125 127 144 150 143 144 146 149 150 153 153 148 151 149 145 146 138 140 135 134 137 140 136 151 152 131 152 153 162 165 168 177 185
179 167 152 138 89 70 96 106 124 124 117 125 139 153 152 150 150 143 144 141 142 138 143 140 147 145 143 141 141 141 142 129 129 141 142 125 152 158 169 177 182 182 185
171 167 160 141 101 96 116 114 124 123 121 123 132 138 143 153 151 147 134 132 134 134 144 150 152 151 149 152 153 149 134 131 130 148 159 148 162 167 180 186 194 198 188
180 166 150 131 115 119 132 126 125 129 123 119 115 122 143 148 151 154 141 136 126 132 139 139 141 147 155 156 160 162 158 143 138 139 176 151 168 162 174 213 207 207 206